• în Republica Moldova
  • Lista ţărilor
  • Pe 7 zile
  • Temperatura apei
  • Hartă satelitară
  • Meteo pe hartă
  • Widget-uri
  • user-avatar
    Intrare

    Meteo pe oră la Ali Bayramli

    Astăzi, 27 Aprilie, Joi

    Timp Temperatura Precipitaţii Vânt Presiune Umiditate
    00:00 +10°C° 0 mm 1 m/s 773 mmHg 65%
    01:00 +8°C° 0 mm 0 m/s 773 mmHg 66%
    02:00 +7°C° 0 mm 0 m/s 772 mmHg 68%
    03:00 +7°C° 0 mm 0 m/s 772 mmHg 71%
    04:00 +8°C° 0 mm 0 m/s 772 mmHg 69%
    05:00 +9°C° 0 mm 0 m/s 772 mmHg 66%
    06:00 +9°C° 0 mm 0 m/s 772 mmHg 63%
    07:00 +12°C° 0 mm 1 m/s 772 mmHg 56%
    08:00 +13°C° 0 mm 1 m/s 772 mmHg 50%
    09:00 +14°C° 0 mm 1 m/s 772 mmHg 43%
    10:00 +15°C° 0 mm 2 m/s 772 mmHg 42%
    11:00 +16°C° 0 mm 3 m/s 772 mmHg 42%
    12:00 +17°C° 0 mm 3 m/s 772 mmHg 41%
    13:00 +18°C° 0 mm 4 m/s 771 mmHg 41%
    14:00 +18°C° 0 mm 4 m/s 771 mmHg 41%
    15:00 +17°C° 0 mm 5 m/s 770 mmHg 41%
    16:00 +18°C° 0 mm 4 m/s 770 mmHg 44%
    17:00 +17°C° 0 mm 4 m/s 770 mmHg 47%
    18:00 +16°C° 0 mm 3 m/s 770 mmHg 51%
    19:00 +13°C° 0 mm 3 m/s 770 mmHg 54%
    20:00 +13°C° 0 mm 2 m/s 771 mmHg 58%
    21:00 +12°C° 0 mm 1 m/s 771 mmHg 61%
    22:00 +12°C° 0 mm 1 m/s 771 mmHg 63%
    23:00 +11°C° 0 mm 1 m/s 770 mmHg 65%

    Mâine, 28 Aprilie, Vineri

    Timp Temperatura Precipitaţii Vânt Presiune Umiditate
    00:00 +11°C° 0 mm 1 m/s 770 mmHg 67%
    01:00 +11°C° 0 mm 1 m/s 770 mmHg 67%
    02:00 +11°C° 0 mm 1 m/s 770 mmHg 66%
    03:00 +11°C° 0 mm 1 m/s 769 mmHg 66%
    04:00 +12°C° 0 mm 1 m/s 769 mmHg 65%
    05:00 +12°C° 0 mm 2 m/s 769 mmHg 65%
    06:00 +12°C° 0 mm 2 m/s 769 mmHg 64%
    07:00 +14°C° 0 mm 2 m/s 769 mmHg 58%
    08:00 +16°C° 0 mm 1 m/s 769 mmHg 51%
    09:00 +18°C° 0 mm 1 m/s 768 mmHg 45%
    10:00 +19°C° 0 mm 2 m/s 768 mmHg 41%
    11:00 +20°C° 0 mm 2 m/s 767 mmHg 38%
    12:00 +21°C° 0 mm 3 m/s 767 mmHg 34%
    13:00 +21°C° 0 mm 3 m/s 766 mmHg 34%
    14:00 +21°C° 0 mm 4 m/s 766 mmHg 34%
    15:00 +21°C° 0 mm 4 m/s 765 mmHg 34%
    16:00 +20°C° 0 mm 4 m/s 765 mmHg 37%
    17:00 +19°C° 0 mm 4 m/s 765 mmHg 41%
    18:00 +18°C° 0 mm 3 m/s 765 mmHg 44%
    19:00 +17°C° 0 mm 3 m/s 765 mmHg 47%
    20:00 +15°C° 0 mm 2 m/s 765 mmHg 50%
    21:00 +14°C° 0 mm 1 m/s 765 mmHg 53%
    22:00 +14°C° 0 mm 1 m/s 765 mmHg 54%
    23:00 +14°C° 0 mm 1 m/s 764 mmHg 55%

    Poimâine, 29 Aprilie, Sâmbătă

    Timp Temperatura Precipitaţii Vânt Presiune Umiditate
    00:00 +13°C° 0 mm 1 m/s 764 mmHg 56%
    01:00 +13°C° 0 mm 1 m/s 764 mmHg 56%
    02:00 +13°C° 0 mm 1 m/s 763 mmHg 56%
    03:00 +13°C° 0 mm 1 m/s 763 mmHg 56%
    04:00 +14°C° 0 mm 1 m/s 763 mmHg 55%
    05:00 +14°C° 0 mm 1 m/s 763 mmHg 54%
    06:00 +15°C° 0 mm 1 m/s 763 mmHg 53%
    07:00 +18°C° 0 mm 1 m/s 763 mmHg 47%
    08:00 +20°C° 0 mm 1 m/s 762 mmHg 42%
    09:00 +21°C° 0 mm 1 m/s 762 mmHg 37%
    10:00 +23°C° 0 mm 2 m/s 762 mmHg 35%
    11:00 +24°C° 0 mm 2 m/s 762 mmHg 34%
    12:00 +25°C° 0 mm 2 m/s 761 mmHg 32%
    13:00 +25°C° 0 mm 3 m/s 761 mmHg 33%
    14:00 +25°C° 0 mm 4 m/s 761 mmHg 34%
    15:00 +25°C° 0 mm 5 m/s 760 mmHg 35%
    16:00 +23°C° 0 mm 4 m/s 760 mmHg 39%
    17:00 +21°C° 0 mm 4 m/s 760 mmHg 44%
    18:00 +20°C° 0 mm 4 m/s 760 mmHg 48%
    19:00 +19°C° 0 mm 3 m/s 760 mmHg 51%
    20:00 +17°C° 0 mm 2 m/s 761 mmHg 53%
    21:00 +16°C° 0 mm 2 m/s 761 mmHg 56%
    22:00 +16°C° 0 mm 1 m/s 761 mmHg 56%
    23:00 +15°C° 0 mm 1 m/s 760 mmHg 57%

    30 Aprilie, Duminică

    Timp Temperatura Precipitaţii Vânt Presiune Umiditate
    00:00 +15°C° 0 mm 1 m/s 760 mmHg 57%
    01:00 +15°C° 0 mm 1 m/s 760 mmHg 59%
    02:00 +14°C° 0 mm 1 m/s 760 mmHg 60%
    03:00 +14°C° 0 mm 1 m/s 759 mmHg 61%
    04:00 +15°C° 0 mm 1 m/s 760 mmHg 59%
    05:00 +16°C° 0 mm 1 m/s 760 mmHg 58%
    06:00 +16°C° 0 mm 1 m/s 760 mmHg 56%
    07:00 +19°C° 0 mm 1 m/s 760 mmHg 50%
    08:00 +21°C° 0 mm 1 m/s 760 mmHg 44%
    09:00 +23°C° 0 mm 1 m/s 760 mmHg 39%
    10:00 +24°C° 0 mm 1 m/s 760 mmHg 37%
    11:00 +25°C° 0 mm 2 m/s 759 mmHg 35%
    12:00 +26°C° 0 mm 2 m/s 759 mmHg 33%
    13:00 +26°C° 0 mm 2 m/s 759 mmHg 33%
    14:00 +26°C° 0 mm 3 m/s 758 mmHg 33%
    15:00 +26°C° 0 mm 4 m/s 758 mmHg 32%
    16:00 +25°C° 0 mm 3 m/s 758 mmHg 35%
    17:00 +24°C° 0 mm 3 m/s 758 mmHg 38%
    18:00 +21°C° 0 mm 3 m/s 758 mmHg 41%
    19:00 +20°C° 0 mm 2 m/s 758 mmHg 44%
    20:00 +19°C° 0 mm 2 m/s 759 mmHg 46%
    21:00 +18°C° 0 mm 2 m/s 759 mmHg 49%
    22:00 +18°C° 0,2 mm 1 m/s 759 mmHg 50%
    23:00 +18°C° 0,2 mm 1 m/s 759 mmHg 51%

    1 Mai, Luni

    Timp Temperatura Precipitaţii Vânt Presiune Umiditate
    00:00 +18°C° 0,2 mm 1 m/s 759 mmHg 53%
    01:00 +16°C° 0 mm 1 m/s 759 mmHg 54%
    02:00 +16°C° 0 mm 1 m/s 758 mmHg 55%
    03:00 +14°C° 0 mm 0 m/s 758 mmHg 57%
    04:00 +15°C° 0 mm 0 m/s 759 mmHg 55%
    05:00 +16°C° 0 mm 0 m/s 759 mmHg 54%
    06:00 +17°C° 0 mm 0 m/s 759 mmHg 52%
    07:00 +21°C° 0 mm 1 m/s 760 mmHg 46%
    08:00 +23°C° 0 mm 1 m/s 760 mmHg 41%
    09:00 +25°C° 0 mm 1 m/s 760 mmHg 35%
    10:00 +26°C° 0 mm 1 m/s 760 mmHg 32%
    11:00 +27°C° 0 mm 1 m/s 759 mmHg 30%
    12:00 +29°C° 0 mm 2 m/s 759 mmHg 28%
    13:00 +29°C° 0 mm 3 m/s 759 mmHg 27%
    14:00 +29°C° 0 mm 3 m/s 759 mmHg 27%
    15:00 +29°C° 0 mm 4 m/s 759 mmHg 26%
    16:00 +28°C° 0 mm 4 m/s 759 mmHg 28%
    17:00 +26°C° 0 mm 4 m/s 759 mmHg 31%
    18:00 +23°C° 0 mm 4 m/s 759 mmHg 33%
    19:00 +22°C° 0 mm 3 m/s 760 mmHg 34%
    20:00 +20°C° 0 mm 3 m/s 760 mmHg 35%
    21:00 +19°C° 0 mm 2 m/s 760 mmHg 36%
    22:00 +18°C° 0 mm 2 m/s 760 mmHg 37%
    23:00 +18°C° 0 mm 2 m/s 760 mmHg 38%

    2 Mai, Marţi

    Timp Temperatura Precipitaţii Vânt Presiune Umiditate
    00:00 +18°C° 0 mm 1 m/s 760 mmHg 40%
    01:00 +18°C° 0 mm 1 m/s 760 mmHg 39%
    02:00 +18°C° 0 mm 1 m/s 760 mmHg 38%
    03:00 +17°C° 0 mm 2 m/s 760 mmHg 37%
    04:00 +18°C° 0 mm 1 m/s 760 mmHg 39%
    05:00 +19°C° 0 mm 1 m/s 760 mmHg 40%
    06:00 +19°C° 0 mm 1 m/s 760 mmHg 41%
    07:00 +21°C° 0 mm 1 m/s 760 mmHg 37%
    08:00 +23°C° 0 mm 1 m/s 760 mmHg 32%
    09:00 +25°C° 0 mm 2 m/s 761 mmHg 28%
    10:00 +26°C° 0 mm 2 m/s 760 mmHg 26%
    11:00 +27°C° 0 mm 3 m/s 760 mmHg 25%
    12:00 +28°C° 0 mm 4 m/s 759 mmHg 24%
    13:00 +28°C° 0 mm 5 m/s 759 mmHg 25%
    14:00 +27°C° 0 mm 5 m/s 759 mmHg 27%
    15:00 +27°C° 0 mm 6 m/s 758 mmHg 28%
    16:00 +26°C° 0 mm 5 m/s 758 mmHg 32%
    17:00 +24°C° 0 mm 3 m/s 758 mmHg 36%
    18:00 +23°C° 0 mm 2 m/s 759 mmHg 39%
    19:00 +21°C° 0 mm 2 m/s 759 mmHg 40%
    20:00 +20°C° 0 mm 2 m/s 759 mmHg 41%
    21:00 +20°C° 0 mm 2 m/s 759 mmHg 42%
    22:00 +19°C° 0 mm 2 m/s 758 mmHg 44%
    23:00 +20°C° 0 mm 1 m/s 758 mmHg 46%
    Arată mai mult